CW8721 Weather Reports


Display with metric or nautical units.
time (UTC)temp
F
wind
direction
speed
MPH
gust
MPH
rain 1hr
in
rain 24hr
in
rain mn
in
humidity
%
barometer
mb
20260902080517 71 136 5.0 11.0 0.00 0.00 0.00 48 1004.7
20260902080015 72 157 5.0 11.0 0.00 0.00 0.00 48 1004.6
20260902075515 72 185 5.0 11.0 0.00 0.00 0.00 47 1004.6
20260902075014 72 150 5.0 14.0 0.00 0.00 0.00 47 1004.6
20260902074514 72 150 7.0 15.0 0.00 0.00 0.00 46 1004.6
20260902074014 72 156 7.0 18.0 0.00 0.00 0.00 46 1004.4
20260902073512 72 196 8.0 17.0 0.00 0.00 0.00 45 1004.3
20260902073017 72 170 9.0 17.0 0.00 0.00 0.00 44 1004.3
20260902072512 72 171 7.0 13.0 0.00 0.00 0.00 44 1004.3
20260902072011 73 163 6.0 15.0 0.00 0.00 0.00 44 1004.1
20260902071517 73 174 7.0 17.0 0.00 0.00 0.00 44 1004.2
20260902071011 73 132 6.0 17.0 0.00 0.00 0.00 44 1004.1
20260902070511 72 179 7.0 12.0 0.00 0.00 0.00 45 1004.1
20260902070009 72 143 6.0 14.0 0.00 0.00 0.00 46 1004.2
20260902065509 72 167 7.0 14.0 0.00 0.00 0.00 46 1004.1
20260902065011 72 156 5.0 14.0 0.00 0.00 0.00 46 1004.2
20260902064507 71 204 5.0 12.0 0.00 0.00 0.00 48 1004.2
20260902064006 71 155 5.0 12.0 0.00 0.00 0.00 50 1004.1
20260902063506 71 198 6.0 10.0 0.00 0.00 0.00 50 1004.2
20260902063009 71 156 5.0 9.0 0.00 0.00 0.00 50 1004.2
20260902062508 71 171 5.0 11.0 0.00 0.00 0.00 51 1004.2
20260902062003 72 186 5.0 13.0 0.00 0.00 0.00 49 1004.0
20260902061502 72 173 5.0 13.0 0.00 0.00 0.00 48 1004.1
20260902061002 72 181 6.0 13.0 0.00 0.00 0.00 48 1004.2
20260902060501 72 186 5.0 12.0 0.00 0.00 0.00 48 1004.1
20260902055559 72 140 6.0 13.0 0.00 0.00 0.00 48 1004.1
20260902055059 72 178 4.0 11.0 0.00 0.00 0.00 48 1004.2
20260902054603 72 135 4.0 11.0 0.00 0.00 0.00 48 1004.3
20260902054058 72 139 4.0 13.0 0.00 0.00 0.00 47 1004.3
20260902053602 73 144 5.0 11.0 0.00 0.00 0.00 46 1004.3
20260902053059 73 171 6.0 11.0 0.00 0.00 0.00 47 1004.2
20260902052559 73 179 5.0 10.0 0.00 0.00 0.00 47 1004.4
20260902052057 73 182 4.0 11.0 0.00 0.00 0.00 47 1004.4
20260902051559 73 141 5.0 11.0 0.00 0.00 0.00 46 1004.4
20260902051057 73 167 6.0 12.0 0.00 0.00 0.00 46 1004.5
20260902050559 74 166 6.0 14.0 0.00 0.00 0.00 46 1004.5
20260902050105 74 175 7.0 14.0 0.00 0.00 0.00 46 1004.4
20260902045559 74 169 7.0 13.0 0.00 0.00 0.00 46 1004.5
20260902045058 73 171 5.0 12.0 0.00 0.00 0.00 46 1004.5
20260902044556 73 177 4.0 11.0 0.00 0.00 0.00 46 1004.6
20260902044056 73 172 4.0 9.0 0.00 0.00 0.00 45 1004.6
20260902043556 73 178 4.0 9.0 0.00 0.00 0.00 45 1004.7
20260902043056 73 179 3.0 8.0 0.00 0.00 0.00 45 1004.7
20260902042556 74 130 4.0 8.0 0.00 0.00 0.00 45 1004.7
20260902042055 74 159 3.0 8.0 0.00 0.00 0.00 45 1004.6
20260902041605 75 186 4.0 9.0 0.00 0.00 0.00 45 1004.5
20260902041056 75 173 4.0 9.0 0.00 0.00 0.00 45 1004.5
20260902040555 75 176 3.0 12.0 0.00 0.00 0.00 46 1004.4
20260902040055 75 145 5.0 12.0 0.00 0.00 0.00 46 1004.3
20260902035554 75 181 5.0 15.0 0.00 0.00 0.00 46 1004.4
20260902035055 75 150 4.0 15.0 0.00 0.00 0.00 46 1004.3
20260902034556 75 170 6.0 14.0 0.00 0.00 0.00 46 1004.2
20260902034054 75 176 5.0 14.0 0.00 0.00 0.00 46 1004.2
20260902033554 76 131 6.0 14.0 0.00 0.00 0.00 45 1004.1
20260902033106 76 177 7.0 14.0 0.00 0.00 0.00 45 1004.2
20260902032554 75 186 5.0 9.0 0.00 0.00 0.00 46 1004.0
20260902032052 75 156 4.0 10.0 0.00 0.00 0.00 46 1004.0
20260902031552 75 190 4.0 11.0 0.00 0.00 0.00 46 1004.0
20260902031053 75 188 3.0 9.0 0.00 0.00 0.00 46 1004.0
20260902030553 75 156 3.0 9.0 0.00 0.00 0.00 46 1004.0
20260902030052 75 174 1.0 6.0 0.00 0.00 0.00 46 1004.0
20260902025552 76 159 2.0 7.0 0.00 0.00 0.00 44 1003.9
20260902025053 76 178 2.0 8.0 0.00 0.00 0.00 44 1003.9
20260902024552 76 163 3.0 10.0 0.00 0.00 0.00 43 1003.8
20260902024053 77 155 3.0 10.0 0.00 0.00 0.00 43 1003.8
20260902023552 77 179 2.0 10.0 0.00 0.00 0.00 42 1003.7
20260902023057 77 144 4.0 11.0 0.00 0.00 0.00 41 1003.7
20260902022551 77 184 4.0 9.0 0.00 0.00 0.00 40 1003.7
20260902022051 77 175 5.0 7.0 0.00 0.00 0.00 40 1003.6
20260902021608 77 177 3.0 12.0 0.00 0.00 0.00 40 1003.7
20260902021051 78 134 3.0 12.0 0.00 0.00 0.00 39 1003.7
20260902020551 78 174 5.0 11.0 0.00 0.00 0.00 39 1003.7
20260902020056 78 128 5.0 11.0 0.00 0.00 0.00 38 1003.8
20260902015549 78 154 5.0 11.0 0.00 0.00 0.00 39 1003.8
20260902015050 79 200 5.0 11.0 0.00 0.00 0.00 38 1003.9
20260902014550 79 150 5.0 16.0 0.00 0.00 0.00 38 1003.9
20260902014049 79 177 6.0 13.0 0.00 0.00 0.00 38 1003.9
20260902013548 79 156 6.0 16.0 0.00 0.00 0.00 38 1003.8
20260902013049 79 179 5.0 11.0 0.00 0.00 0.00 38 1003.9
20260902012547 80 150 5.0 20.0 0.00 0.00 0.00 38 1004.0
20260902012050 80 183 8.0 20.0 0.00 0.00 0.00 37 1004.0
20260902011549 80 144 8.0 16.0 0.00 0.00 0.00 37 1004.0
20260902011047 80 163 7.0 16.0 0.00 0.00 0.00 37 1004.1
20260902010548 80 150 7.0 16.0 0.00 0.00 0.00 38 1004.2
20260902010057 81 175 7.0 17.0 0.00 0.00 0.00 37 1004.1
20260902005551 81 121 5.0 17.0 0.00 0.00 0.00 37 1004.2
20260902005047 81 138 6.0 15.0 0.00 0.00 0.00 37 1004.2
20260902004547 81 186 6.0 14.0 0.00 0.00 0.00 36 1004.2
20260902004047 81 175 5.0 17.0 0.00 0.00 0.00 36 1004.4
20260902003544 80 137 6.0 17.0 0.00 0.00 0.00 37 1004.3
20260902003044 80 140 6.0 14.0 0.00 0.00 0.00 37 1004.5
20260902002543 81 159 8.0 14.0 0.00 0.00 0.00 36 1004.4
20260902002043 81 142 5.0 15.0 0.00 0.00 0.00 38 1004.5
20260902001543 81 138 8.0 18.0 0.00 0.00 0.00 36 1004.5
20260902001043 81 147 7.0 18.0 0.00 0.00 0.00 37 1004.5
20260902000542 81 170 7.0 16.0 0.00 0.00 0.00 36 1004.5
20260902000052 81 188 5.0 13.0 0.00 0.00 0.00 36 1004.6
20260901235542 81 86 4.0 13.0 0.00 0.00 0.00 37 1004.5
20260901235041 80 179 4.0 11.0 0.00 0.00 0.00 37 1004.6
20260901234605 80 167 4.0 14.0 0.00 0.00 0.00 38 1004.6
20260901234044 81 137 6.0 15.0 0.00 0.00 0.00 36 1004.7
20260901233540 82 138 6.0 19.0 0.00 0.00 0.00 36 1004.6
20260901233039 82 175 7.0 19.0 0.00 0.00 0.00 36 1004.8
20260901232539 81 136 8.0 18.0 0.00 0.00 0.00 36 1004.8
20260901232039 81 171 4.0 8.0 0.00 0.00 0.00 37 1004.9
20260901231548 81 128 2.0 9.0 0.00 0.00 0.00 38 1004.9
20260901231037 81 182 5.0 12.0 0.00 0.00 0.00 37 1005.0
20260901230537 81 138 5.0 16.0 0.00 0.00 0.00 37 1005.0
20260901230054 82 148 4.0 13.0 0.00 0.00 0.00 38 1005.1
20260901225537 82 94 3.0 14.0 0.00 0.00 0.00 37 1005.1
20260901225035 81 153 8.0 14.0 0.00 0.00 0.00 36 1005.3
20260901224538 81 132 6.0 17.0 0.00 0.00 0.00 38 1005.4
20260901224036 81 151 5.0 17.0 0.00 0.00 0.00 37 1005.5
20260901223534 81 144 5.0 18.0 0.00 0.00 0.00 36 1005.5
20260901223044 82 93 9.0 21.0 0.00 0.00 0.00 37 1005.6
20260901222533 81 141 5.0 21.0 0.00 0.00 0.00 36 1005.8
20260901222031 81 207 6.0 15.0 0.00 0.00 0.00 36 1005.8
20260901221535 81 135 5.0 14.0 0.00 0.00 0.00 36 1005.9
20260901221031 81 188 4.0 16.0 0.00 0.00 0.00 36 1005.9
20260901220532 81 186 4.0 16.0 0.00 0.00 0.00 36 1006.1
20260901220033 81 119 8.0 18.0 0.00 0.00 0.00 35 1006.2
20260901215528 82 130 8.0 18.0 0.00 0.00 0.00 36 1006.3
20260901215028 83 169 7.0 20.0 0.00 0.00 0.00 36 1006.4
20260901214528 83 146 7.0 20.0 0.00 0.00 0.00 33 1006.3
20260901214029 83 180 6.0 24.0 0.00 0.00 0.00 35 1006.4
20260901213525 83 169 8.0 24.0 0.00 0.00 0.00 35 1006.4
20260901213025 83 172 4.0 19.0 0.00 0.00 0.00 36 1006.5
20260901212523 82 171 8.0 19.0 0.00 0.00 0.00 36 1006.6
20260901212023 82 143 6.0 20.0 0.00 0.00 0.00 37 1006.6
20260901211522 82 171 11.0 20.0 0.00 0.00 0.00 37 1006.8
20260901211020 81 208 8.0 17.0 0.00 0.00 0.00 38 1006.9
20260901210524 81 148 6.0 14.0 0.00 0.00 0.00 40 1006.9
20260901210020 80 116 8.0 13.0 0.00 0.00 0.00 40 1007.1
20260901205520 80 181 6.0 17.0 0.00 0.00 0.00 40 1007.1
20260901205020 81 132 7.0 17.0 0.00 0.00 0.00 38 1007.1
20260901204519 81 105 6.0 16.0 0.00 0.00 0.00 40 1007.3
20260901204017 80 132 6.0 16.0 0.00 0.00 0.00 40 1007.5
20260901203519 79 137 5.0 13.0 0.00 0.00 0.00 42 1007.7
20260901203022 78 188 7.0 15.0 0.00 0.00 0.00 41 1007.9
20260901202515 79 169 8.0 15.0 0.00 0.00 0.00 40 1007.8
20260901202015 80 128 7.0 17.0 0.00 0.00 0.00 40 1007.9
20260901201513 79 165 9.0 21.0 0.00 0.00 0.00 40 1007.8
20260901201013 79 161 5.0 21.0 0.00 0.00 0.00 41 1007.8
20260901200517 79 181 8.0 16.0 0.00 0.00 0.00 41 1007.9
20260901200025 78 152 7.0 16.0 0.00 0.00 0.00 44 1008.1
20260901195509 78 187 6.0 15.0 0.00 0.00 0.00 44 1008.2
20260901195013 77 112 5.0 16.0 0.00 0.00 0.00 46 1008.2
20260901194507 77 185 7.0 16.0 0.00 0.00 0.00 44 1008.3
20260901194006 77 150 8.0 17.0 0.00 0.00 0.00 44 1008.5
20260901193506 77 182 8.0 21.0 0.00 0.00 0.00 44 1008.6
20260901193004 76 161 9.0 21.0 0.00 0.00 0.00 45 1008.6
20260901192504 77 150 8.0 17.0 0.00 0.00 0.00 45 1008.6
20260901192002 76 133 8.0 18.0 0.00 0.00 0.00 46 1008.8
20260901191501 75 142 10.0 18.0 0.00 0.00 0.00 45 1008.7
20260901191004 75 161 6.0 20.0 0.00 0.00 0.00 47 1008.8
20260901190502 75 165 9.0 19.0 0.00 0.00 0.00 47 1008.8
20260901190109 75 164 10.0 19.0 0.00 0.00 0.00 46 1008.8
20260901185602 75 188 10.0 22.0 0.00 0.00 0.00 46 1008.9
20260901185100 75 123 7.0 20.0 0.00 0.00 0.00 47 1009.0
20260901184559 75 157 10.0 18.0 0.00 0.00 0.00 46 1009.1
20260901184100 75 136 9.0 18.0 0.00 0.00 0.00 46 1008.9
20260901183604 75 165 8.0 15.0 0.00 0.00 0.00 46 1009.1
20260901183102 75 126 7.0 23.0 0.00 0.00 0.00 46 1009.0
20260901182559 75 191 9.0 23.0 0.00 0.00 0.00 45 1009.1
20260901182059 75 116 8.0 20.0 0.00 0.00 0.00 46 1009.2
20260901181559 74 182 8.0 22.0 0.00 0.00 0.00 47 1009.1
20260901181056 74 191 8.0 18.0 0.00 0.00 0.00 47 1009.3
20260901180557 74 153 10.0 18.0 0.00 0.00 0.00 47 1009.3
20260901180056 74 161 8.0 20.0 0.00 0.00 0.00 48 1009.3
20260901175557 74 165 10.0 22.0 0.00 0.00 0.00 47 1009.2
20260901175055 75 164 7.0 20.0 0.00 0.00 0.00 47 1009.3
20260901174556 75 128 8.0 20.0 0.00 0.00 0.00 47 1009.3
20260901174055 75 174 9.0 16.0 0.00 0.00 0.00 46 1009.2
20260901173555 75 184 9.0 18.0 0.00 0.00 0.00 47 1009.3
20260901173107 74 136 7.0 18.0 0.00 0.00 0.00 47 1009.4
20260901172554 74 175 8.0 17.0 0.00 0.00 0.00 47 1009.5
20260901172052 75 168 7.0 22.0 0.00 0.00 0.00 48 1009.5
20260901171552 74 123 8.0 22.0 0.00 0.00 0.00 48 1009.5
20260901171055 74 134 11.0 20.0 0.00 0.00 0.00 47 1009.5
20260901170550 74 177 10.0 17.0 0.00 0.00 0.00 47 1009.6
20260901170053 74 173 9.0 17.0 0.00 0.00 0.00 47 1009.6
20260901165549 74 156 10.0 17.0 0.00 0.00 0.00 47 1009.5
20260901165049 74 184 10.0 19.0 0.00 0.00 0.00 48 1009.6
20260901164602 73 166 10.0 19.0 0.00 0.00 0.00 48 1009.5
20260901164045 73 176 8.0 19.0 0.00 0.00 0.00 48 1009.6
20260901163545 73 190 9.0 18.0 0.00 0.00 0.00 49 1009.6
20260901163044 73 181 8.0 16.0 0.00 0.00 0.00 49 1009.5
20260901162542 72 142 7.0 16.0 0.00 0.00 0.00 50 1009.6
20260901162040 71 171 7.0 15.0 0.00 0.00 0.00 51 1009.6
20260901161540 71 153 7.0 15.0 0.00 0.00 0.00 50 1009.6
20260901161039 71 176 7.0 15.0 0.00 0.00 0.00 50 1009.6
20260901160539 71 193 5.0 18.0 0.00 0.00 0.00 51 1009.6
20260901160043 71 137 8.0 18.0 0.00 0.00 0.00 50 1009.6
20260901155537 71 185 7.0 18.0 0.00 0.00 0.00 52 1009.5
20260901155036 71 185 8.0 18.0 0.00 0.00 0.00 52 1009.6
20260901154535 70 148 5.0 17.0 0.00 0.00 0.00 53 1009.7
20260901154034 70 190 9.0 14.0 0.00 0.00 0.00 53 1009.7
20260901153532 70 161 6.0 16.0 0.00 0.00 0.00 54 1009.7
20260901153037 69 161 8.0 16.0 0.00 0.00 0.00 54 1009.7
20260901152530 69 169 9.0 19.0 0.00 0.00 0.00 54 1009.8
20260901152027 69 184 10.0 19.0 0.00 0.00 0.00 55 1009.8
20260901151527 68 196 9.0 17.0 0.00 0.00 0.00 56 1009.8
20260901151026 68 175 7.0 15.0 0.00 0.00 0.00 57 1009.7
20260901150523 67 168 6.0 18.0 0.00 0.00 0.00 59 1009.7
20260901150022 67 167 4.0 15.0 0.00 0.00 0.00 59 1009.8
20260901145519 66 181 7.0 15.0 0.00 0.00 0.00 60 1009.8
20260901145019 66 170 7.0 14.0 0.00 0.00 0.00 60 1009.8
20260901144527 66 126 6.0 11.0 0.00 0.00 0.00 59 1009.8
20260901144017 66 164 6.0 13.0 0.00 0.00 0.00 60 1009.9
20260901143518 65 182 3.0 13.0 0.00 0.00 0.00 61 1009.9
20260901143016 65 161 5.0 11.0 0.00 0.00 0.00 61 1010.0
20260901142516 64 174 3.0 8.0 0.00 0.00 0.00 62 1009.9
20260901142013 64 141 3.0 9.0 0.00 0.00 0.00 63 1009.9
20260901141514 64 114 3.0 7.0 0.00 0.00 0.00 63 1010.0
20260901141013 64 159 2.0 5.0 0.00 0.00 0.00 63 1009.9
20260901140511 63 155 2.0 6.0 0.00 0.00 0.00 64 1009.9
20260901140012 63 134 3.0 9.0 0.00 0.00 0.00 65 1009.8
20260901135511 62 170 4.0 9.0 0.00 0.00 0.00 68 1009.6
20260901135011 61 360 0.0 6.0 0.00 0.00 0.00 69 1009.7
20260901134510 61 360 1.0 6.0 0.00 0.00 0.00 69 1009.6
20260901134010 61 191 1.0 4.0 0.00 0.00 0.00 69 1009.6
20260901133511 60 139 1.0 5.0 0.00 0.00 0.00 70 1009.4
20260901133016 60 67 0.0 3.0 0.00 0.00 0.00 70 1009.4
20260901132510 60 79 1.0 4.0 0.00 0.00 0.00 70 1009.3
20260901132008 60 100 0.0 5.0 0.00 0.00 0.00 70 1009.3
20260901131510 60 98 1.0 5.0 0.00 0.00 0.00 70 1009.2
20260901131007 60 94 1.0 4.0 0.00 0.00 0.00 69 1009.3
20260901130004 61 90 3.0 5.0 0.00 0.00 0.00 67 1009.2
20260901125502 61 81 1.0 5.0 0.00 0.00 0.00 66 1009.1
20260901125005 62 62 2.0 8.0 0.00 0.00 0.00 64 1009.1
20260901124503 63 149 3.0 8.0 0.00 0.00 0.00 63 1009.1
20260901124001 63 186 3.0 8.0 0.00 0.00 0.00 63 1009.0
20260901123600 63 168 3.0 9.0 0.00 0.00 0.00 63 1009.0
20260901123501 63 165 3.0 9.0 0.00 0.00 0.00 63 1009.1
20260901123100 63 179 4.0 9.0 0.00 0.00 0.00 64 1009.0
20260901122600 63 184 4.0 12.0 0.00 0.00 0.00 64 1009.2
20260901122101 62 180 4.0 12.0 0.00 0.00 0.00 66 1009.3
20260901121611 61 147 1.0 7.0 0.00 0.00 0.00 67 1009.4
20260901121059 62 171 2.0 7.0 0.00 0.00 0.00 66 1009.3
20260901120600 62 223 1.0 7.0 0.00 0.00 0.00 66 1009.3
20260901120109 62 101 3.0 7.0 0.00 0.00 0.00 67 1009.2
20260901115558 61 175 1.0 5.0 0.00 0.00 0.00 68 1009.2
20260901115100 62 121 1.0 8.0 0.00 0.00 0.00 67 1009.0
20260901114602 62 181 2.0 9.0 0.00 0.00 0.00 66 1009.0
20260901114057 62 150 3.0 11.0 0.00 0.00 0.00 65 1008.9
20260901113557 62 178 4.0 11.0 0.00 0.00 0.00 66 1008.9
20260901113057 62 148 2.0 11.0 0.00 0.00 0.00 66 1008.7
20260901112559 62 191 4.0 10.0 0.00 0.00 0.00 66 1008.6
20260901112056 62 184 4.0 9.0 0.00 0.00 0.00 66 1008.6
20260901111601 62 167 4.0 10.0 0.00 0.00 0.00 67 1008.7
20260901111055 62 189 5.0 11.0 0.00 0.00 0.00 67 1008.8
20260901110554 62 188 5.0 11.0 0.00 0.00 0.00 67 1008.9
20260901110054 62 172 5.0 11.0 0.00 0.00 0.00 68 1009.0
20260901105554 62 173 4.0 12.0 0.00 0.00 0.00 69 1008.9
20260901105056 62 198 4.0 9.0 0.00 0.00 0.00 68 1008.9
20260901104553 62 175 4.0 12.0 0.00 0.00 0.00 67 1009.0
20260901104053 62 171 5.0 12.0 0.00 0.00 0.00 66 1009.0
20260901103553 62 182 5.0 11.0 0.00 0.00 0.00 67 1009.0
20260901103110 62 171 5.0 11.0 0.00 0.00 0.00 67 1009.0
20260901102552 62 159 4.0 11.0 0.00 0.00 0.00 68 1009.0
20260901102051 62 180 6.0 11.0 0.00 0.00 0.00 68 1009.1
20260901101554 62 180 5.0 12.0 0.00 0.00 0.00 69 1009.1
20260901101050 62 181 6.0 12.0 0.00 0.00 0.00 70 1009.1
20260901100550 62 126 5.0 13.0 0.00 0.00 0.00 70 1009.1
20260901100050 62 152 6.0 13.0 0.00 0.00 0.00 70 1009.1
20260901095549 62 177 6.0 13.0 0.00 0.00 0.00 71 1009.1
20260901095049 62 136 6.0 12.0 0.00 0.00 0.00 71 1009.1
20260901094549 62 184 6.0 10.0 0.00 0.00 0.00 71 1009.1
20260901094048 62 159 3.0 10.0 0.00 0.00 0.00 71 1009.2
20260901093552 62 141 4.0 12.0 0.00 0.00 0.00 70 1009.2
20260901093113 62 159 5.0 12.0 0.00 0.00 0.00 70 1009.2
20260901092544 62 162 4.0 10.0 0.00 0.00 0.00 69 1009.3
20260901092044 63 158 4.0 10.0 0.00 0.00 0.00 68 1009.3
20260901091615 63 179 5.0 12.0 0.00 0.00 0.00 67 1009.1
20260901091044 63 175 3.0 9.0 0.00 0.00 0.00 67 1009.2
20260901090542 63 152 4.0 9.0 0.00 0.00 0.00 66 1009.0
20260901090042 63 181 5.0 11.0 0.00 0.00 0.00 66 1009.1
20260901085540 63 165 4.0 11.0 0.00 0.00 0.00 66 1009.1
20260901085041 63 166 5.0 14.0 0.00 0.00 0.00 66 1009.2
20260901084539 63 173 5.0 14.0 0.00 0.00 0.00 66 1009.2
20260901084038 63 181 4.0 9.0 0.00 0.00 0.00 66 1009.2
20260901083541 63 167 5.0 10.0 0.00 0.00 0.00 66 1009.4
20260901083043 63 180 4.0 8.0 0.00 0.00 0.00 66 1009.6
20260901082536 63 177 3.0 10.0 0.00 0.00 0.00 66 1009.7
20260901082036 63 173 4.0 10.0 0.00 0.00 0.00 66 1009.7
20260901081534 63 189 4.0 9.0 0.00 0.00 0.00 66 1009.8
20260901081035 63 182 4.0 7.0 0.00 0.00 0.00 67 1009.7